YAOGAN 7

Satellite information

Favourite Embed

Satellite Type and Status

PAYLOADIN ORBIT

Key statistics

Satellite YAOGAN 7 at a glance.

Uptime

5628

Days in orbit

Revolutions

≈ 14.8

Per day

Orbit

SSO

Sun Synchronous Orbit

Inclination

98.1

Latest

Satellite identification and parameters

Extended collection of information and parameters for YAOGAN 7.

Object identification

Identified? True

Debris? False

Object name: YAOGAN 7

International designator: 2009-069A

Object number (NORAD): 36110

Object ID (CCSDS): 36110

Country: PEOPLES REPUBLIC OF CHINA (PRC)

Current information (Y/N): Y

RCS size: LARGE

Orbital parameters

Period: 97.47 minutes

Inclination: 98.0604 deg

SMA: 7015.745 km

Apoapsis: 654.052 km

Periapsis: 621.169 km

RAAN: 8.8591 deg

Eccentricy: 0.0023435

Argument of periapsis: 269.3491 deg

Mean anomaly: 90.5034 deg

Mean motion: 14.77379357 rev/day

Mean motion (dot): 0.00000816 rev/day2

B* drag term: 0.00012184 1/REarth

Two-line elements (TLE)

Creation date: May 7, 2025, 3:14 a.m.

Reference frame: TEME

Reference center: EARTH

Epoch: May 6, 2025, 2:25 p.m. UTC

TLE line 0: 0 YAOGAN 7

TLE line 1: 1 36110U 09069A 25126.60097869 .00000816 00000-0 12184-3 0 9990

TLE line 2: 2 36110 98.0604 8.8591 0023435 269.3491 90.5034 14.77379357829588

Live tracking on map

Real-time ground track for satellite YAOGAN 7.

In-orbit conjunctions

There are no conjunctions computed for YAOGAN 7, at the moment. Check back to stay up to date, as we update our databases every day.

Go to all conjunctions

Associated space launch

Chinese Earth observation satellite, likely also used for military reconnaissance

YAOGAN 7 was lifted into orbit during the mission ‘Long March 2D | Yaogan Weixing 7’, on board a Long March 2D space rocket.

The launch took place on Dec. 9, 2009, 8:42 a.m. from Launch Area 4 (SLS-2 / 603).

For more information about the launch, click the button.

Launch to space Long March 2D | Yaogan Weixing 7
Long March 2D | Yaogan Weixing 7

Agency: N/A

Status: Launch Successful

Launch date: Dec. 9, 2009, 8:42 a.m. UTC

Rocket: Long March 2D

Launch pad: Launch Area 4 (SLS-2 / 603)

Location: Jiuquan Satellite Launch Center, People's Republic of China

...

Latest news about this satellite

There are no fresh news available about this satellite. Check back as we update our databases every day.


Newsletter sign-up

Weekly statistics, charts and insights to help you stay on top of the space industry.